This is the latest recevied weather packets stored in our database for station/object KE8KMM. If no packets are shown the sender has not sent any weather packets the latest 10 day(s).
| Time | Temp. | Humidity | Pressure | Rain* | Wind** | Luminosity | Snow |
|---|---|---|---|---|---|---|---|
| 1777809824 | 1.67° C | 96% | 1017.4 hPa | 0 mm | - | 114 W/m² | - |
| 1777809522 | 1.11° C | 96% | 1017.1 hPa | 0 mm | - | 75 W/m² | - |
| 1777809219 | 0.56° C | 96% | 1017.2 hPa | 0 mm | - | 58 W/m² | - |
| 1777808917 | 0° C | 96% | 1017.4 hPa | 0 mm | - | 32 W/m² | - |
| 1777808613 | 0° C | 96% | 1017.3 hPa | 0 mm | - | 31 W/m² | - |
| 1777808310 | -0.56° C | 96% | 1017.3 hPa | 0 mm | - | 42 W/m² | - |
| 1777808009 | -0.56° C | 95% | 1017.5 hPa | 0 mm | - | 26 W/m² | - |
| 1777807706 | -1.11° C | 95% | 1017.2 hPa | 0 mm | - | 25 W/m² | - |
| 1777807404 | -1.11° C | 95% | 1017.3 hPa | 0 mm | - | 23 W/m² | - |
| 1777807104 | -1.11° C | 95% | 1017.2 hPa | 0 mm | - | 23 W/m² | - |
| 1777806802 | -1.67° C | 95% | 1017.1 hPa | 0 mm | - | 22 W/m² | - |
| 1777806498 | -1.67° C | 95% | 1016.9 hPa | 0 mm | - | 19 W/m² | - |
| 1777806195 | -1.67° C | 95% | 1017 hPa | 0 mm | - | 16 W/m² | - |
| 1777805891 | -1.67° C | 95% | 1016.7 hPa | 0 mm | - | 16 W/m² | - |
| 1777805588 | -1.67° C | 95% | 1016.7 hPa | 0 mm | - | 13 W/m² | - |
| 1777805286 | -1.67° C | 95% | 1016.9 hPa | 0 mm | - | 10 W/m² | - |
| 1777804983 | -1.67° C | 95% | 1016.8 hPa | 0 mm | - | 8 W/m² | - |
| 1777804681 | -1.67° C | 95% | 1016.8 hPa | 0 mm | - | 6 W/m² | - |
| 1777804378 | -1.67° C | 95% | 1016.7 hPa | 0 mm | - | 3 W/m² | - |
| 1777804075 | -1.67° C | 95% | 1016.6 hPa | 0 mm | - | 2 W/m² | - |
| 1777803772 | -1.67° C | 95% | 1016.5 hPa | 0 mm | - | 0 W/m² | - |
| 1777803468 | -1.67° C | 95% | 1016.4 hPa | 0 mm | - | 0 W/m² | - |
| 1777803166 | -1.67° C | 95% | 1016.6 hPa | 0 mm | - | 0 W/m² | - |
| 1777802862 | -1.67° C | 95% | 1016.4 hPa | 0 mm | - | 0 W/m² | - |
| 1777802561 | -1.67° C | 95% | 1016.4 hPa | 0 mm | - | 0 W/m² | - |
* Rain latest hour (hover to see other rain measurements)
** Current wind speed in m/s (hover to see current wind gust speed)